This demonstration page uses our WeatherBlox Daily Observations layout. Learn more.

38.89511, -77.03637

Hourly Observations for October 3, 2018

Temp ( °F °C ) Dew Point ( °F °C ) Humidity (%) Winds ( mph kmh ) Pressure ( in mb ) Visibility ( mi km ) Precip ( " mm )
12:52 am 00:52 Mostly Cloudy 71 21.7 66 18.9 84 84 S 7 11 30.04 1017 10 16.0934 0 0
1:52 am 01:52 Mostly Cloudy 71 21.7 67 19.4 87 87 S 8 13 30.03 1017 10 16.0934 0 0
2:52 am 02:52 Partly Cloudy 71 21.7 67 19.4 87 87 S 7 11 30.04 1017 10 16.0934 0 0
3:52 am 03:52 Partly Cloudy 70 21.1 66 18.9 87 87 S 6 9 30.04 1017 10 16.0934 0 0
4:52 am 04:52 Mostly Cloudy 70 21.1 67 19.4 90 90 SSW 7 11 30.04 1017 10 16.0934 0 0
5:52 am 05:52 Partly Cloudy 69 20.6 66 18.9 90 90 S 5 7 30.05 1018 9 14.48406 0 0
6:52 am 06:52 Mostly Clear 69 20.6 66 18.9 90 90 S 3 6 30.06 1018 9 14.48406 0 0
7:52 am 07:52 Mostly Sunny 69 20.6 67 19.4 93 93 S 5 7 30.07 1018 7 11.26538 0 0
8:52 am 08:52 Mostly Sunny 72 22.2 68 20 87 87 SSW 3 6 30.08 1019 10 16.0934 0 0
9:52 am 09:52 Mostly Sunny 75 23.9 69 20.6 82 82 S 6 9 30.08 1019 10 16.0934 0 0
10:52 am 10:52 Partly Cloudy 83 28.3 68 20 61 61 WNW 6 9 30.08 1019 10 16.0934 0 0
11:52 am 11:52 Mostly Cloudy 83 28.3 66 18.9 57 57 NNW 12 19 30.08 1019 10 16.0934 0 0
12:52 pm 12:52 Mostly Cloudy 83 28.3 65 18.3 55 55 NNW 12 19 30.07 1018 10 16.0934 0 0
1:52 pm 13:52 Mostly Cloudy 84 28.9 66 18.9 55 55 N 8 13 30.05 1018 10 16.0934 0 0
2:52 pm 14:52 Mostly Cloudy 86 30 66 18.9 51 51 N 12 19 30.04 1017 10 16.0934 0 0
3:52 pm 15:52 Mostly Cloudy 86 30 66 18.9 51 51 N 10 17 30.03 1017 10 16.0934 0 0
4:52 pm 16:52 Mostly Cloudy 86 30 65 18.3 49 49 NNE 6 9 30.03 1017 10 16.0934 0 0
5:52 pm 17:52 Mostly Cloudy 84 28.9 64 17.8 51 51 N 6 9 30.03 1017 10 16.0934 0 0
6:52 pm 18:52 Mostly Cloudy 77 25 65 18.3 66 66 ENE 10 17 30.04 1017 10 16.0934 0 0
7:52 pm 19:52 Mostly Cloudy 77 25 66 18.9 69 69 Calm 30.06 1018 10 16.0934 0 0
8:52 pm 20:52 Partly Cloudy 75 23.9 66 18.9 74 74 Calm 30.06 1018 10 16.0934 0 0
9:52 pm 21:52 Partly Cloudy 74 23.3 66 18.9 76 76 E 3 6 30.07 1018 10 16.0934 0 0
10:52 pm 22:52 Partly Cloudy 73 22.8 65 18.3 76 76 NE 3 6 30.08 1019 10 16.0934 0 0
11:52 pm 23:52 Mostly Clear 72 22.2 65 18.3 79 79 Calm 30.07 1018 10 16.0934 0 0

Powered by AerisWeather